Location: St. Louis
(38.6270°N, 90.1994°W)
Time: 07:18:06
(UTC-06:00)

Transit 2A Rocket - Pass Details

Date: 08 December 2021
Orbit: 584 x 917 km, 66.7° (Epoch: 23 January)

Event Time Altitude Azimuth Distance (km) Brightness Sun altitude
Rises 05:50:12 0° 193° (SSW) 3,257 8.3 -14.5°
Reaches altitude 10° 05:52:33 10° 189° (S) 2,382 7.7 -14.0°
Maximum altitude 05:57:56 55° 113° (ESE) 1,025 6.1 -13.0°
Drops below altitude 10° 06:03:46 10° 37° (NE) 2,571 7.9 -12.0°
Sets 06:06:23 0° 33° (NNE) 3,539 8.6 -11.5°
